Regional Weather Roundup
Issued by NWS

Home | Current Version | Previous Version | Graphics & Text | Print | Product List | Glossary On
Versions: 1 2 3 4 5 6 7 8 9 10 11 12 13 14 15 16 17 18 19 20 21 22 23 24 25 26 27 28 29 30 31 32 33 34 35 36 37 38 39 40 41 42 43 44 45 46 47 48 49 50
000
ASUS43 KOAX 261402
RWRNE

WEATHER ROUNDUP FOR NEBRASKA
NATIONAL WEATHER SERVICE OMAHA NE
900 AM CDT SUN APR 26 2015

NOTES: SATELLITE DATA IS BEING USED TO AUGMENT CLOUD COVER ABOVE
       12000 FEET.
       "FAIR" INDICATES FEW OR NO CLOUDS BELOW 12,000 FEET WITH NO
       SIGNIFICANT WEATHER AND/OR OBSTRUCTIONS TO VISIBILITY.

  * THESE STATIONS DO NOT REPORT WEATHER SUCH AS RAIN...SNOW OR FOG.

NEZ001>004-019>022-054>056-261500-
NEBRASKA PANHANDLE

CITY           SKY/WX    TMP DP  RH WIND       PRES   REMARKS
SCOTTSBLUFF    LGT RAIN  47  32  56 E16       29.87R
ALLIANCE       LGT RAIN  45  43  93 E13       29.89R FOG
CHADRON        LGT RAIN  48  47  96 E8        29.91R FOG
KIMBALL        RAIN      45  44  99 SE7       29.87R
SIDNEY         FOG       43  43 100 SE15      29.90R VSB 1/4
$$

NEZ057>060-069>072-079>082-261500-
SOUTHWEST NEBRASKA

CITY           SKY/WX    TMP DP  RH WIND       PRES   REMARKS
IMPERIAL       CLOUDY    43  40  89 E16       29.93R
MCCOOK         CLOUDY    45  43  93 E18       29.92R FOG
$$

NEZ005>010-023>029-035>040-094-261500-
NORTH CENTRAL NEBRASKA

CITY           SKY/WX    TMP DP  RH WIND       PRES   REMARKS
VALENTINE      CLOUDY    46  39  76 SE15      30.00R
AINSWORTH      CLOUDY    45  40  83 SE8       30.01R
BROKEN BOW     CLOUDY    46  40  79 E14G26    29.98R
ORD            CLOUDY    46  40  79 E8        29.99S
$$

NEZ041-046>049-061>064-073>077-083>087-261500-
SOUTH CENTRAL NEBRASKA

CITY           SKY/WX    TMP DP  RH WIND       PRES   REMARKS
GRAND ISLAND   CLOUDY    47  40  76 E10       30.01R
AURORA         CLOUDY    46  43  91 E10       30.00R
HASTINGS       CLOUDY    45  39  79 E13       29.99R
KEARNEY *      CLOUDY    45  39  81 E15       29.99R
YORK           MOSUNNY   46  41  81 E13       30.01R
$$

NEZ011>018-030>034-042>045-261500-
NORTHEAST NEBRASKA

CITY           SKY/WX    TMP DP  RH WIND       PRES   REMARKS
NORFOLK        SUNNY     49  39  68 E13       30.03R
BLAIR          SUNNY     46  39  77 NE9       30.03R
COLUMBUS *     SUNNY     46  36  66 E13       30.04R
TEKAMAH        SUNNY     49  40  71 NE9       30.05R
$$

NEZ050>053-065>068-078-088>093-261500-
SOUTHEAST NEBRASKA

CITY           SKY/WX    TMP DP  RH WIND       PRES   REMARKS
LINCOLN        SUNNY     48  40  73 E13       30.02R
OMAHA EPPLEY   MOSUNNY   48  39  71 E13G18    30.04R
BEATRICE       CLOUDY    46  42  86 E10       29.99R
FALLS CITY     CLOUDY    47  41  80 E14G22    29.98R
NEBRASKA CITY  SUNNY     46  39  76 E13       30.00R
PLATTSMOUTH    SUNNY     47  39  76 E13       30.01R
$$

NEZ044-045-051>053-067-261500-
OMAHA AREA

CITY           SKY/WX    TMP DP  RH WIND       PRES   REMARKS
OMAHA EPPLEY   MOSUNNY   48  39  71 E13G18    30.04R
BLAIR          SUNNY     46  39  77 NE9       30.03R
OFFUTT AFB     SUNNY     48  40  73 E13       30.02R
PLATTSMOUTH    SUNNY     47  39  76 E13       30.01R
WAHOO          FAIR      47  39  73 E10       30.02R
$$



USA.gov is the U.S. government's official web portal to all federal, state and local government web resources and services.